Back to catalog

ARIANE 2 DEB

LostGTO
NORAD 33551·DEBRIS·🇫🇷 France

Launched Jan 27, 1989 from Guiana Space Centre

Loading…

TLE

StaleSource: Space-Track

Epoch: Sep 17, 2025, 22:29 UTC

1 33551U 89006AT  25260.93683366 -.00000123  00000-0  00000-0 0  9996
2 33551   8.4120 199.0593 6870791 211.7634 359.7714  2.20986347 92000

Track ARIANE 2 DEB in real time with AllMySat

Download on the App Store